Regional Weather Roundup
Issued by NWS Jackson, KY

Home | Current Version | Previous Version | Text Only | Print | Product List | Glossary Off
Versions: 1 2 3 4 5 6 7 8 9 10 11 12 13 14 15 16 17 18 19 20 21 22 23 24 25 26 27 28 29 30 31 32 33 34 35 36 37 38 39 40 41 42 43 44 45 46 47 48 49 50

000
ASUS43 KJKL 271210
RWRJKL

EAST KENTUCKY HOURLY WEATHER ROUNDUP
NATIONAL WEATHER SERVICE JACKSON KY
800 AM EDT MON JUL 27 2015

NOTE: "FAIR" INDICATES FEW OR NO CLOUDS BELOW 12,000 FEET WITH
NO SIGNIFICANT WEATHER AND/OR OBSTRUCTIONS TO VISIBILITY.

* THESE REPORTS ARE NOT UNDER NWS QUALITY CONTROL AND MAY NOT
  REPORT WEATHER SUCH AS PRECIPITATION AND FOG.

KYZ079-080-083-085-087-088-110-112-115-119-120-271300
...EASTERN KENTUCKY...

CITY           SKY/WX    TMP DP  RH WIND       PRES   REMARKS
JACKSON        MOSUNNY   74  72  93 CALM      30.02S FOG
6HR MIN TEMP:  72; 6HR MAX TEMP:  77;

LONDON         CLOUDY    73  68  84 CALM      30.03R
6HR MIN TEMP:  72; 6HR MAX TEMP:  76;

SOMERSET*      PTSUNNY   70  70 100 CALM      30.03S
MONTICELLO*    PTSUNNY   73  73 100 CALM      30.05R FOG
6HR MIN TEMP:  69; 6HR MAX TEMP:  73;

WILLIAMSBURG*  MOSUNNY   68  68 100 CALM      30.04R
MIDDLESBORO*   FOG       71  71 100 CALM      30.05S VSB 3/4
6HR MIN TEMP:  70; 6HR MAX TEMP:  74;

HAZARD APT*    MOSUNNY   73  73 100 CALM      30.02S
BLACK MTN*       N/A     68  66  94 S2          N/A
PIKEVILLE APT* DRZL/FOG  72  70  94 CALM      30.04R VSB 1/2
BIG SANDY*     CLOUDY    74  72  93 CALM      30.02R
6HR MIN TEMP:  72; 6HR MAX TEMP:  76;

MOREHEAD APT*  CLOUDY    73  72  94 CALM      30.01S FOG
$$

KYZ035-036-041-042-044-050-067-078-099-271300
...CENTRAL KENTUCKY...

CITY           SKY/WX    TMP DP  RH WIND       PRES   REMARKS
MT STERLING*   PTSUNNY   75  72  88 SW3       30.00F
FLEMING/MASON* HVY RAIN  72  72 100 N14G21    30.00R VSB 3/4
RICHMOND*      PTSUNNY   73  68  83 SW5       30.00R
LEXINGTON      PTSUNNY   73  71  93 S6        30.00S
6HR MIN TEMP:  73; 6HR MAX TEMP:  76; 6HR PCP:  0.45;

FRANKFORT      SUNNY     75  72  90 CALM      29.97F FOG
6HR MIN TEMP:  73; 6HR MAX TEMP:  77;

$$

KYZ091>093-OHZ055-061-077-WVZ005-015-034-035-042-271300
...SOUTHERN OHIO/WEST VIRGINIA...

CITY           SKY/WX    TMP DP  RH WIND       PRES   REMARKS
COVINGTON      PTSUNNY   74  72  93 N3        29.98S FOG
COLUMBUS       PTSUNNY   73  68  84 E3        29.99S
DAYTON         CLOUDY    71  71 100 E5        30.01S
WILMINGTON     PTSUNNY   72  69  90 N5        30.00R FOG
HUNTINGTON     CLOUDY    73  72  96 E3        29.99R FOG
CHARLESTON     CLOUDY    73  70  90 CALM      30.00R
PINEVILLE*     RAIN      69  69 100 MISG      30.10S
BECKLEY        CLOUDY    70  64  81 CALM      30.09R
BLUEFIELD      LGT RAIN  73  66  78 CALM      30.11R
$$

VAZ002-007-008-TNZ017-027-036-066-071-271300
...SOUTHWEST VIRGINIA/EAST TENNESSEE...

CITY           SKY/WX    TMP DP  RH WIND       PRES   REMARKS
WISE*          CLOUDY    72  70  94 SW3       30.11S
ABINGDON*      PTSUNNY   71  68  90 CALM      30.09R
BRISTOL        CLOUDY    71  69  93 CALM      30.05R
KNOXVILLE      PTSUNNY   75  69  81 CALM      30.03R
OAK RIDGE      SUNNY     75  71  87 CALM      30.04R
CROSSVILLE     PTSUNNY   73  69  87 CALM      30.08R FOG
NASHVILLE      MOSUNNY   76  75  97 CALM      30.00S FOG
$$

...KEY TO REMARKS...
VSB - VISIBILITY IN MILES
WCI - WIND CHILL INDEX
HX  - HEAT INDEX

$$


USA.gov is the U.S. government's official web portal to all federal, state and local government web resources and services.